Hourly Weather Roundup
Issued by NWS Central Illinois

Home | Current Version | Previous Version | Text Only | Print | Product List | Glossary On
Versions: 1 2 3 4 5 6 7 8 9 10 11 12 13 14 15 16 17 18 19 20 21 22 23 24 25 26 27 28 29 30 31 32 33 34 35 36 37 38 39 40 41 42 43 44 45 46 47 48 49 50
000
NZUS43 KILX 142110
HWRILX

AREA WEATHER ROUNDUP
NATIONAL WEATHER SERVICE, LINCOLN IL
300 PM CST SUN FEB 14 2016


CITY           SKY/WX    TMP DP  RH WIND       PRES   REMARKS
BLOOMINGTON    CLOUDY    19  16  88 SE15      30.03F WCI   5
CHAMPAIGN      CLOUDY    20  16  84 SE20      30.05F WCI   4
DANVILLE       LGT SNOW  19  15  84 E13       30.07F WCI   6
DECATUR        CLOUDY    21  15  78 SE18      30.03F WCI   6
EFFINGHAM      CLOUDY    23  20  87 E12       30.06F WCI  12
FLORA          CLOUDY    26  21  82 SE16      30.06F WCI  13
GALESBURG      LGT SNOW  19  17  90 SE8       29.98S VSB 3/4 WCI   9
JACKSONVILLE   CLOUDY    25  20  80 SE12      29.98F WCI  15
LACON          LGT SNOW  19  15  84 SE8       30.04F VSB 3/4 WCI   9
LAWRENCEVILLE  LGT SNOW  22  19  89 E10       30.10F FOG     WCI  11
LITCHFIELD     CLOUDY    23  18  81 SE14      29.99F WCI  11
$$


CITY           SKY/WX    TMP DP  RH WIND       PRES   REMARKS
LINCOLN        CLOUDY    22  18  85 SE16      30.02F WCI   8
MACOMB         CLOUDY    21  18  90 SE14      30.00S FOG     WCI   8
MATTOON        CLOUDY    20  15  81 SE17      30.04S WCI   5
MT CARMEL AP   LGT SNOW  23  19  86 SE15      30.09S WCI  10
OLNEY-NOBLE AP CLOUDY    23  19  86 SE14G20   30.06F WCI  11
PARIS          LGT SNOW  20  17  86 E10G17    30.09F WCI   9
PEORIA         LGT SNOW  20  14  77 SE12G20   30.02F WCI   8
PONTIAC        MIX PCPN  20  17  89 SE18      30.08F WCI   5
RANTOUL        LGT SNOW  21  17  84 E16       30.07F WCI   7
ROBINSON       LGT SNOW  21  17  86 SE10G18   30.11R VSB 1   WCI  10
SPRINGFIELD    CLOUDY    23  18  81 SE15      30.00F WCI  10
TAYLORVILLE    CLOUDY    23  19  86 SE14G21   30.01F WCI  11
$$

...REGIONAL REPORTS...


CITY           SKY/WX    TMP DP  RH WIND       PRES   REMARKS
CHICAGO O`HARE LGT SNOW  18  13  80 SE14      30.13F WCI   4
KANKAKEE       LGT SNOW  19  14  80 E18       30.12F WCI   4
MOLINE         LGT SNOW  20  15  81 SE14      30.00F VSB 1   WCI   7
MOUNT STERLING CLOUDY    22  18  86 SE12      29.95F WCI  10
MOUNT VERNON   CLOUDY    25  18  74 E7        30.05F WCI  17
PITTSFIELD     CLOUDY    24  20  85 SE9       29.96S WCI  14
QUINCY         CLOUDY    24  18  77 SE9       29.93F WCI  14
ROCKFORD       LGT SNOW  17  12  80 SE13      30.08F FOG     WCI   4
$$


CITY           SKY/WX    TMP DP  RH WIND       PRES   REMARKS
BURLINGTON     CLOUDY    20  18  92 SE10      29.94F FOG     WCI   9
CEDAR RAPIDS   LGT SNOW  19  14  81 SE10G20   29.93F WCI   7
DES MOINES     CLOUDY    24  17  74 SE10      29.86F WCI  14
KIRKSVILLE     CLOUDY    27  21  78 SE6       29.89R WCI  20
OTTUMWA        CLOUDY    21  19  92 SE12      29.90F WCI   9
ST LOUIS       CLOUDY    27  21  80 SE12      29.98F WCI  16
$$


CITY           SKY/WX    TMP DP  RH WIND       PRES   REMARKS
TERRE HAUTE    SNOW      19  15  84 E13       30.11S VSB 1/2 WCI   6
EVANSVILLE     HVY SNOW  25  19  78 E9        30.09F VSB 1/4 WCI  15
INDIANAPOLIS   LGT SNOW  18  14  84 E14       30.12F VSB 3/4 WCI   4
LAFAYETTE      SNOW      18  15  88 E15       30.15F VSB 1/2 WCI   4
MADISON        LGT SNOW  15  10  80 SE15      30.05F WCI   0
MILWAUKEE      LGT SNOW  20  15  81 SE15      30.12F VSB 1   WCI   6
$$





USA.gov is the U.S. government's official web portal to all federal, state and local government web resources and services.